Seward, AK

6:13 AM AKDT on September 19, 2017 (GMT -0800)
Seward

Weather History for PAWD - March, 2012

Change the Weather History Date:

Friday, March 9, 2012

  Actual Average Record
Temperature  
Mean Temperature 23 °F -  
Max Temperature 28 °F 35 °F 45 °F (1962)
Min Temperature 18 °F 24 °F -5 °F (1971)
Degree Days  
Heating Degree Days 42    
Moisture  
Dew Point 5 °F    
Average Humidity 48    
Maximum Humidity 57    
Minimum Humidity 39    
Precipitation  
Precipitation 0.00 in - - ()
Sea Level Pressure  
Sea Level Pressure 29.17 in    
Wind  
Wind Speed 18 mph (North)    
Max Wind Speed 25 mph    
Max Gust Speed 43 mph    
Visibility 10 miles    
Events      
Averages and records for this station are not official NWS values.
T = Trace of Precipitation, MM = Missing Value Source: NWS Daily Summary

Daily Weather History Graph

Daily Weather History Graph

Search for Another Location

Airport or City:

Trip Planner

Search our weather history database for the weather conditions in past years. The results will help you decide how hot, cold, wet, or windy it might be!

Date:

Astronomy

Mar. 09, 2012 Rise Set
Actual Time 7:30 AM AKST 6:46 PM AKST
Civil Twilight 6:48 AM AKST 7:28 PM AKST
Nautical Twilight 6:00 AM AKST 8:17 PM AKST
Astronomical Twilight 5:09 AM AKST 9:08 PM AKST
Moon 9:51 PM AKST (3/9) 7:15 AM AKST (3/9)
Length of Visible Light 12h 39m
Length of Day
11h 16m
Full, 97% of the Moon is Illuminated
Mar 9
Full
Mar 14
Last Quarter
Mar 22
New
Mar 30
First Quarter
Apr 6
Full

Hourly Weather History & Observations

Time (AKST) Temp. Windchill Dew Point Humidity Pressure Visibility Wind Dir Wind Speed Gust Speed Precip Events Conditions
12:53 AM 19.0 °F 3.2 °F 5.0 °F 54% 29.00 in 10.0 mi NNE 19.6 mph 28.8 mph N/A   Clear
1:53 AM 18.0 °F 2.2 °F 5.0 °F 57% 28.99 in 10.0 mi North 18.4 mph 26.5 mph N/A   Clear
3:53 AM 19.0 °F 2.4 °F 5.0 °F 54% 29.00 in 10.0 mi North 21.9 mph 29.9 mph N/A   Clear
4:53 AM 19.9 °F 4.8 °F 5.0 °F 52% 29.01 in 10.0 mi North 18.4 mph 29.9 mph N/A   Clear
5:53 AM 19.9 °F 3.2 °F 3.0 °F 48% 29.01 in 10.0 mi NNE 23.0 mph 42.6 mph N/A   Clear
6:53 AM 19.9 °F 4.8 °F 3.0 °F 48% 29.03 in 10.0 mi NNE 18.4 mph 26.5 mph N/A   Clear
7:53 AM 19.0 °F 4.5 °F 1.9 °F 47% 29.06 in 10.0 mi North 16.1 mph 24.2 mph N/A   Clear
8:53 AM 21.0 °F 7.6 °F 1.9 °F 44% 29.09 in 10.0 mi North 15.0 mph 23.0 mph N/A   Clear
9:53 AM 21.0 °F 8.1 °F 3.0 °F 46% 29.12 in 10.0 mi NNE 13.8 mph 20.7 mph N/A   Clear
10:53 AM 24.1 °F 12.5 °F 3.9 °F 42% 29.15 in 10.0 mi North 12.7 mph 20.7 mph N/A   Clear
11:53 AM 25.0 °F 12.2 °F 3.9 °F 41% 29.17 in 10.0 mi North 16.1 mph 23.0 mph N/A   Clear
12:53 PM 26.1 °F 14.5 °F 5.0 °F 41% 29.21 in 10.0 mi North 13.8 mph - N/A   Clear
1:53 PM 28.0 °F 18.6 °F 6.1 °F 39% 29.23 in 10.0 mi North 10.4 mph 19.6 mph N/A   Clear
2:53 PM 28.0 °F 18.6 °F 6.1 °F 39% 29.24 in 10.0 mi NNE 10.4 mph 18.4 mph N/A   Clear
3:53 PM 28.0 °F 18.1 °F 6.1 °F 39% 29.26 in 10.0 mi NNE 11.5 mph - N/A   Clear
4:53 PM 26.1 °F 15.0 °F 7.0 °F 44% 29.27 in 10.0 mi North 12.7 mph - N/A   Clear
5:53 PM 25.0 °F 12.2 °F 7.0 °F 46% 29.28 in 10.0 mi NNW 16.1 mph 24.2 mph N/A   Clear
6:53 PM 23.0 °F 10.6 °F 7.0 °F 50% 29.29 in 10.0 mi North 13.8 mph 21.9 mph N/A   Clear
7:53 PM 23.0 °F 9.2 °F 7.0 °F 50% 29.30 in 10.0 mi NNW 17.3 mph 24.2 mph N/A   Clear
8:53 PM 23.0 °F 8.0 °F 7.0 °F 50% 29.31 in 10.0 mi North 20.7 mph 26.5 mph N/A   Overcast
9:53 PM 21.0 °F 7.1 °F 7.0 °F 55% 29.31 in 10.0 mi North 16.1 mph 25.3 mph N/A   Partly Cloudy
10:53 PM 21.9 °F 6.2 °F 7.0 °F 53% 29.31 in 10.0 mi North 21.9 mph 29.9 mph N/A   Mostly Cloudy
11:53 PM 21.0 °F 3.9 °F 8.1 °F 57% 29.32 in 10.0 mi North 25.3 mph 32.2 mph N/A   Mostly Cloudy